Location: Albany
(35.0170°S, 117.8920°E)
Time: 21:22:55
(UTC+08:00)

S-56A Canister/Altair - Pass Details

Date: 25 June 2021
Orbit: 632 x 2501 km, 38.9° (Epoch: 24 July)

Event Time Altitude Azimuth Distance (km) Brightness Sun altitude
Rises 18:39:12 0° 254° (WSW) 6,113 13.1 -18.6°
Reaches altitude 10° 18:43:08 10° 253° (WSW) 5,164 12.6 -19.4°
Maximum altitude 18:58:36 89° 160° (SSE) 2,357 9.8 -22.5°
Enters shadow 19:07:13 27° 70° (ENE) 3,357 10.3 -24.2°
